Photometre #842[NE_1.6] Lille AOT

File : 20221126_842.hum

26/11/2022,08:33:37,TEMP=6.2,BA=5.68,STAT.A=0.5,ExtBa=13.15
26/11/2022,08:35:27,TEMP=6.6,BA=5.68,STAT.F,ExtBa=13.03
26/11/2022,08:50:00,TEMP=6.5,BA=5.68,STAT.D=0.5,ExtBa=13.06
26/11/2022,09:05:00,TEMP=6.6,BA=5.68,STAT.D=0.5,ExtBa=13.02
26/11/2022,09:20:00,TEMP=6.9,BA=5.68,STAT.D=0.5,ExtBa=13.08
26/11/2022,09:35:02,TEMP=7.3,BA=5.68,STAT.F,ExtBa=13.06
26/11/2022,09:50:00,TEMP=7.8,BA=5.60,STAT.D=0.5,ExtBa=12.77
26/11/2022,10:05:00,TEMP=8.2,BA=5.68,STAT.D=0.5,ExtBa=13.01
26/11/2022,10:20:00,TEMP=9.0,BA=5.68,STAT.D=1.0,ExtBa=13.03
26/11/2022,10:35:02,TEMP=9.7,BA=5.68,STAT.F,ExtBa=13.03
26/11/2022,10:50:00,TEMP=10.2,BA=5.60,STAT.D=0.5,ExtBa=12.75
26/11/2022,11:05:01,TEMP=10.7,BA=5.68,STAT.D=1.0,ExtBa=13.00
26/11/2022,11:20:00,TEMP=11.6,BA=5.68,STAT.D=1.0,ExtBa=13.02
26/11/2022,11:35:02,TEMP=12.2,BA=5.68,STAT.F,ExtBa=12.96
26/11/2022,11:54:51,TEMP=12.6,BA=5.56,STAT.D=0.5,ExtBa=12.66
26/11/2022,12:05:00,TEMP=12.7,BA=5.68,STAT.D=1.0,ExtBa=12.90
26/11/2022,12:20:00,TEMP=13.1,BA=5.68,STAT.D=1.0,ExtBa=12.96
26/11/2022,12:35:02,TEMP=12.7,BA=5.68,STAT.F,ExtBa=12.98
26/11/2022,12:50:00,TEMP=12.1,BA=5.56,STAT.D=1.0,ExtBa=12.69
26/11/2022,13:05:00,TEMP=11.4,BA=5.68,STAT.D=1.0,ExtBa=12.92
26/11/2022,13:20:00,TEMP=11.0,BA=5.68,STAT.D=1.0,ExtBa=12.96
26/11/2022,13:35:02,TEMP=10.8,BA=5.68,STAT.F,ExtBa=12.96
26/11/2022,13:50:00,TEMP=11.1,BA=5.56,STAT.D=1.0,ExtBa=12.67
26/11/2022,14:05:00,TEMP=10.6,BA=5.68,STAT.D=1.0,ExtBa=12.90
26/11/2022,14:20:00,TEMP=10.1,BA=5.68,STAT.D=1.0,ExtBa=12.96
26/11/2022,14:35:02,TEMP=9.6,BA=5.68,STAT.F,ExtBa=12.96
26/11/2022,14:36:51,TEMP=9.9,BA=5.68,STAT.A=0.5,ExtBa=12.93